TimePST,TemperatureF,Dew PointF,Humidity,Sea Level PressureIn,VisibilityMPH,Wind Direction,Wind SpeedMPH,Gust SpeedMPH,PrecipitationIn,Events,Conditions,WindDirDegrees,DateUTC
12:51 AM,60.1,30.0,32,30.03,10.0,NW,11.5,-,N/A,,Clear,310,2012-12-11 08:51:00
1:51 AM,59.0,28.0,31,30.02,10.0,NW,10.4,-,N/A,,Clear,310,2012-12-11 09:51:00
2:51 AM,61.0,30.0,31,30.01,10.0,NW,9.2,-,N/A,,Clear,320,2012-12-11 10:51:00
3:51 AM,61.0,28.9,30,30.01,10.0,NNW,6.9,-,N/A,,Clear,340,2012-12-11 11:51:00
4:51 AM,62.1,30.0,30,30.01,10.0,NW,5.8,-,N/A,,Clear,320,2012-12-11 12:51:00
5:51 AM,62.1,30.0,30,30.02,10.0,Calm,Calm,-,N/A,,Clear,0,2012-12-11 13:51:00
6:51 AM,63.0,28.0,27,30.02,10.0,Calm,Calm,-,N/A,,Clear,0,2012-12-11 14:51:00
7:51 AM,63.0,30.9,30,30.03,10.0,WSW,4.6,-,N/A,,Clear,240,2012-12-11 15:51:00
8:51 AM,66.0,25.0,21,30.02,10.0,WSW,6.9,-,N/A,,Clear,240,2012-12-11 16:51:00
9:51 AM,64.0,30.9,29,30.04,10.0,WNW,3.5,-,N/A,,Clear,290,2012-12-11 17:51:00
10:51 AM,64.0,51.1,63,30.02,10.0,WSW,6.9,-,N/A,,Clear,250,2012-12-11 18:51:00
11:51 AM,62.1,50.0,65,30.00,10.0,WSW,8.1,-,N/A,,Clear,250,2012-12-11 19:51:00
12:51 PM,63.0,37.9,40,29.97,10.0,WSW,8.1,-,N/A,,Clear,250,2012-12-11 20:51:00
1:51 PM,64.9,37.0,36,29.95,10.0,WSW,8.1,-,N/A,,Clear,240,2012-12-11 21:51:00
2:51 PM,63.0,39.0,41,29.95,10.0,WSW,8.1,-,N/A,,Clear,240,2012-12-11 22:51:00
3:51 PM,61.0,46.9,60,29.95,10.0,WSW,6.9,-,N/A,,Clear,240,2012-12-11 23:51:00
4:51 PM,57.0,46.0,67,29.95,10.0,WSW,9.2,-,N/A,,Clear,240,2012-12-12 00:51:00
5:47 PM,53.6,48.2,82,29.99,2.0,WSW,10.4,-,N/A,,Haze,250,2012-12-12 01:47:00
5:49 PM,53.6,51.8,94,29.99,1.0,WSW,11.5,-,N/A,,Mist,250,2012-12-12 01:49:00
5:51 PM,53.1,52.0,96,29.96,0.8,WSW,11.5,-,N/A,,Mist,250,2012-12-12 01:51:00
6:28 PM,51.8,51.8,100,30.00,1.2,WSW,10.4,-,N/A,,Mostly Cloudy,250,2012-12-12 02:28:00
6:31 PM,51.8,51.8,100,30.00,4.0,WSW,9.2,-,N/A,,Mostly Cloudy,250,2012-12-12 02:31:00
6:38 PM,51.8,50.0,94,30.00,10.0,WSW,9.2,-,N/A,,Scattered Clouds,250,2012-12-12 02:38:00
6:51 PM,52.0,48.9,89,29.97,10.0,WSW,11.5,-,N/A,,Clear,250,2012-12-12 02:51:00
7:46 PM,53.6,51.8,94,30.00,2.5,WSW,8.1,-,N/A,,Partly Cloudy,240,2012-12-12 03:46:00
7:49 PM,51.8,51.8,100,30.00,1.0,WSW,9.2,-,N/A,,Mist,240,2012-12-12 03:49:00
8:06 PM,51.8,50.0,94,30.00,2.0,WSW,10.4,-,N/A,,Scattered Clouds,250,2012-12-12 04:06:00
8:13 PM,53.6,50.0,88,30.00,5.0,West,11.5,-,N/A,,Scattered Clouds,260,2012-12-12 04:13:00
8:17 PM,51.8,50.0,94,30.00,1.2,WSW,10.4,-,N/A,,Scattered Clouds,250,2012-12-12 04:17:00
8:19 PM,51.8,50.0,94,30.00,0.8,WSW,10.4,-,N/A,,Mist,250,2012-12-12 04:19:00
8:27 PM,53.6,50.0,88,30.00,1.5,WSW,10.4,-,N/A,,Partly Cloudy,250,2012-12-12 04:27:00
8:29 PM,53.6,50.0,88,30.00,4.0,WSW,9.2,-,N/A,,Partly Cloudy,250,2012-12-12 04:29:00
8:45 PM,51.8,50.0,94,30.01,1.0,WSW,8.1,-,N/A,,Mist,240,2012-12-12 04:45:00
8:51 PM,52.0,51.1,97,29.98,0.2,WSW,9.2,-,N/A,Fog,Fog,240,2012-12-12 04:51:00
9:33 PM,50.0,48.2,94,30.00,1.5,West,8.1,-,N/A,,Mostly Cloudy,260,2012-12-12 05:33:00
9:35 PM,50.0,46.4,87,30.00,5.0,West,9.2,-,N/A,,Scattered Clouds,260,2012-12-12 05:35:00
9:51 PM,52.0,51.1,97,29.97,0.8,WSW,6.9,-,N/A,,Mist,250,2012-12-12 05:51:00
10:48 PM,51.8,51.8,100,30.00,1.2,SSE,3.5,-,N/A,,Overcast,160,2012-12-12 06:48:00
10:51 PM,51.1,51.1,100,29.98,1.8,SSE,4.6,-,N/A,,Overcast,160,2012-12-12 06:51:00
11:08 PM,51.8,50.0,94,30.00,3.0,Calm,Calm,-,N/A,,Overcast,0,2012-12-12 07:08:00
11:24 PM,50.0,48.2,94,29.99,10.0,SE,3.5,-,N/A,,Scattered Clouds,130,2012-12-12 07:24:00
11:43 PM,51.8,51.8,100,29.99,1.8,SSE,6.9,-,N/A,,Scattered Clouds,160,2012-12-12 07:43:00
11:48 PM,51.8,51.8,100,29.99,1.0,SSE,8.1,-,N/A,,Mist,160,2012-12-12 07:48:00
11:51 PM,51.1,51.1,100,29.96,1.0,South,8.1,-,N/A,,Mist,170,2012-12-12 07:51:00
11:56 PM,51.8,51.8,100,29.99,2.0,South,6.9,-,N/A,,Mostly Cloudy,170,2012-12-12 07:56:00